TimeCDT,TemperatureF,Dew PointF,Humidity,Sea Level PressureIn,VisibilityMPH,Wind Direction,Wind SpeedMPH,Gust SpeedMPH,PrecipitationIn,Events,Conditions,WindDirDegrees,DateUTC
12:53 AM,30.9,27.0,85,30.03,10.0,WNW,11.5,-,N/A,,Overcast,300,2013-04-25 05:53:00
1:13 AM,30.2,26.6,86,29.98,10.0,WNW,10.4,-,N/A,,Overcast,300,2013-04-25 06:13:00
1:53 AM,30.9,26.1,82,30.04,10.0,NW,11.5,-,N/A,,Overcast,310,2013-04-25 06:53:00
2:53 AM,30.0,25.0,82,30.05,10.0,NW,9.2,-,N/A,,Overcast,320,2013-04-25 07:53:00
3:53 AM,30.0,26.1,85,30.06,10.0,West,8.1,-,N/A,,Overcast,280,2013-04-25 08:53:00
4:39 AM,30.2,24.8,80,30.02,10.0,WNW,9.2,-,N/A,,Overcast,290,2013-04-25 09:39:00
4:53 AM,30.0,25.0,82,30.08,10.0,WNW,10.4,-,N/A,,Overcast,300,2013-04-25 09:53:00
5:53 AM,28.9,25.0,85,30.09,10.0,West,8.1,-,N/A,,Overcast,280,2013-04-25 10:53:00
6:53 AM,28.9,25.0,85,30.11,10.0,West,4.6,-,N/A,,Overcast,280,2013-04-25 11:53:00
7:53 AM,28.9,25.0,85,30.14,10.0,West,10.4,-,N/A,,Overcast,260,2013-04-25 12:53:00
8:53 AM,30.0,26.1,85,30.15,10.0,West,6.9,-,N/A,,Overcast,260,2013-04-25 13:53:00
9:14 AM,32.0,26.6,80,30.10,10.0,SW,6.9,-,N/A,,Overcast,230,2013-04-25 14:14:00
9:53 AM,32.0,26.1,79,30.17,10.0,SW,6.9,-,N/A,,Overcast,230,2013-04-25 14:53:00
10:16 AM,32.0,26.6,80,30.11,10.0,SW,5.8,-,N/A,,Overcast,230,2013-04-25 15:16:00
10:53 AM,32.0,26.1,79,30.18,10.0,SW,9.2,-,N/A,,Overcast,220,2013-04-25 15:53:00
11:53 AM,33.1,25.0,72,30.17,10.0,WSW,5.8,-,N/A,,Mostly Cloudy,240,2013-04-25 16:53:00
12:16 PM,35.6,26.6,70,30.10,10.0,WSW,4.6,-,N/A,,Scattered Clouds,240,2013-04-25 17:16:00
12:28 PM,33.8,24.8,70,30.10,10.0,Calm,Calm,-,N/A,,Mostly Cloudy,0,2013-04-25 17:28:00
12:53 PM,36.0,25.0,64,30.15,10.0,WSW,6.9,-,N/A,,Scattered Clouds,240,2013-04-25 17:53:00
1:00 PM,35.6,24.8,65,30.09,10.0,SSW,8.1,-,N/A,,Mostly Cloudy,200,2013-04-25 18:00:00
1:07 PM,35.6,24.8,65,30.08,10.0,South,9.2,-,N/A,,Partly Cloudy,180,2013-04-25 18:07:00
1:53 PM,37.0,23.0,57,30.13,10.0,SSW,8.1,-,N/A,,Clear,200,2013-04-25 18:53:00
2:53 PM,39.0,21.9,50,30.12,10.0,South,9.2,-,N/A,,Clear,190,2013-04-25 19:53:00
3:53 PM,39.0,25.0,57,30.11,10.0,SSW,9.2,-,N/A,,Clear,200,2013-04-25 20:53:00
4:53 PM,41.0,25.0,53,30.10,10.0,SSE,11.5,-,N/A,,Clear,160,2013-04-25 21:53:00
5:53 PM,41.0,24.1,51,30.09,10.0,South,11.5,-,N/A,,Clear,180,2013-04-25 22:53:00
6:53 PM,39.0,24.1,55,30.09,10.0,South,9.2,-,N/A,,Partly Cloudy,170,2013-04-25 23:53:00
7:53 PM,37.9,25.0,60,30.09,10.0,SSE,6.9,-,N/A,,Overcast,150,2013-04-26 00:53:00
8:53 PM,39.0,24.1,55,30.07,10.0,SE,6.9,-,N/A,,Overcast,130,2013-04-26 01:53:00
9:53 PM,39.0,23.0,53,30.07,10.0,SE,10.4,-,N/A,,Overcast,130,2013-04-26 02:53:00
10:53 PM,39.0,25.0,57,30.06,10.0,SE,10.4,-,N/A,,Overcast,140,2013-04-26 03:53:00
11:53 PM,39.0,27.0,62,30.02,10.0,SE,11.5,-,N/A,,Scattered Clouds,130,2013-04-26 04:53:00